TimeEDT,TemperatureF,Dew PointF,Humidity,Sea Level PressureIn,VisibilityMPH,Wind Direction,Wind SpeedMPH,Gust SpeedMPH,PrecipitationIn,Events,Conditions,WindDirDegrees,DateUTC
12:53 AM,50.0,46.0,86,30.15,10.0,North,3.5,-,N/A,,Overcast,360,2012-10-09 04:53:00
1:40 AM,50.0,46.4,87,30.15,10.0,NE,4.6,-,N/A,,Overcast,50,2012-10-09 05:40:00
1:53 AM,50.0,46.0,86,30.14,10.0,Calm,Calm,-,N/A,,Overcast,0,2012-10-09 05:53:00
2:09 AM,50.0,46.4,87,30.15,10.0,Calm,Calm,-,N/A,,Overcast,0,2012-10-09 06:09:00
2:53 AM,50.0,46.0,86,30.14,10.0,Calm,Calm,-,N/A,,Overcast,0,2012-10-09 06:53:00
3:53 AM,50.0,46.0,86,30.14,10.0,Calm,Calm,-,N/A,,Overcast,0,2012-10-09 07:53:00
4:53 AM,50.0,46.0,86,30.14,10.0,Calm,Calm,-,N/A,,Overcast,0,2012-10-09 08:53:00
5:53 AM,50.0,46.9,89,30.14,10.0,Calm,Calm,-,N/A,,Overcast,0,2012-10-09 09:53:00
6:53 AM,50.0,46.4,87,30.15,10.0,ENE,3.5,-,N/A,,Overcast,70,2012-10-09 10:53:00
7:15 AM,50.0,46.4,87,30.15,10.0,Calm,Calm,-,N/A,,Overcast,0,2012-10-09 11:15:00
7:53 AM,50.0,46.9,89,30.16,10.0,Calm,Calm,-,N/A,,Overcast,0,2012-10-09 11:53:00
8:45 AM,51.8,48.2,88,30.17,10.0,Calm,Calm,-,N/A,,Overcast,0,2012-10-09 12:45:00
8:53 AM,51.1,46.9,86,30.17,10.0,NNE,3.5,-,N/A,,Overcast,30,2012-10-09 12:53:00
9:53 AM,52.0,48.0,86,30.16,9.0,Calm,Calm,-,N/A,,Overcast,0,2012-10-09 13:53:00
10:53 AM,53.1,46.9,80,30.16,10.0,Calm,Calm,-,N/A,,Overcast,0,2012-10-09 14:53:00
11:53 AM,54.0,48.0,80,30.15,10.0,Calm,Calm,-,N/A,,Overcast,0,2012-10-09 15:53:00
12:25 PM,55.4,48.2,77,30.15,10.0,Calm,Calm,-,N/A,,Overcast,0,2012-10-09 16:25:00
12:53 PM,57.0,46.9,69,30.13,10.0,SSW,3.5,-,N/A,,Overcast,210,2012-10-09 16:53:00
1:20 PM,55.4,46.4,72,30.13,10.0,West,5.8,-,N/A,,Overcast,260,2012-10-09 17:20:00
1:34 PM,55.4,46.4,72,30.13,10.0,West,4.6,-,N/A,,Overcast,260,2012-10-09 17:34:00
1:53 PM,57.0,45.0,64,30.11,10.0,SW,4.6,-,N/A,,Overcast,220,2012-10-09 17:53:00
2:53 PM,57.9,46.0,65,30.10,10.0,West,3.5,-,N/A,,Overcast,270,2012-10-09 18:53:00
3:53 PM,59.0,46.9,64,30.08,10.0,WSW,4.6,-,N/A,,Mostly Cloudy,250,2012-10-09 19:53:00
4:53 PM,59.0,46.0,62,30.07,10.0,WSW,4.6,-,N/A,,Mostly Cloudy,250,2012-10-09 20:53:00
5:53 PM,57.9,46.0,65,30.06,10.0,WSW,6.9,-,N/A,,Mostly Cloudy,250,2012-10-09 21:53:00
6:53 PM,55.9,46.0,69,30.05,10.0,Calm,Calm,-,N/A,,Partly Cloudy,0,2012-10-09 22:53:00
7:53 PM,53.1,46.0,77,30.05,10.0,North,3.5,-,N/A,,Clear,360,2012-10-09 23:53:00
8:53 PM,51.1,46.9,86,30.06,10.0,Calm,Calm,-,N/A,,Clear,0,2012-10-10 00:53:00
9:53 PM,50.0,46.0,86,30.07,10.0,Calm,Calm,-,N/A,,Clear,0,2012-10-10 01:53:00
10:53 PM,48.9,45.0,86,30.09,10.0,Calm,Calm,-,N/A,,Clear,0,2012-10-10 02:53:00
11:53 PM,46.9,45.0,93,30.08,9.0,Calm,Calm,-,N/A,,Clear,0,2012-10-10 03:53:00